K0SNA Weather Reports


Display with metric or nautical units.
time (UTC)temp
F
wind
direction
speed
MPH
gust
MPH
rain 1hr
in
rain 24hr
in
rain mn
in
humidity
%
barometer
mb
20260906064208 73 183 0.0 0.0 0.00 0.00 0.00 86 1018.0
20260906063702 73 183 0.0 0.0 0.00 0.00 0.00 86 1017.7
20260906063158 73 154 0.0 2.0 0.00 0.00 0.00 86 1018.1
20260906062654 73 154 0.0 1.0 0.00 0.00 0.00 86 1017.9
20260906062152 73 171 1.0 2.0 0.00 0.00 0.00 86 1018.0
20260906061649 73 177 0.0 1.0 0.00 0.00 0.00 87 1017.9
20260906061149 73 177 0.0 2.0 0.00 0.00 0.00 87 1018.0
20260906060645 72 183 0.0 0.0 0.00 0.00 0.00 88 1018.0
20260906060142 72 183 0.0 0.0 0.00 0.00 0.00 88 1018.0
20260906055638 72 189 0.0 0.0 0.00 0.00 0.00 88 1017.9
20260906055133 72 157 0.0 0.0 0.00 0.00 0.00 88 1018.0
20260906054627 72 157 0.0 0.0 0.00 0.00 0.00 88 1018.0
20260906054123 73 157 0.0 0.0 0.00 0.00 0.00 87 1017.9
20260906053620 73 172 0.0 0.0 0.00 0.00 0.00 87 1017.8
20260906053114 73 172 0.0 0.0 0.00 0.00 0.00 87 1017.9
20260906052610 73 172 0.0 1.0 0.00 0.00 0.00 86 1017.8
20260906052107 73 183 0.0 0.0 0.00 0.00 0.00 86 1017.9
20260906051602 73 157 0.0 1.0 0.00 0.00 0.00 86 1017.9
20260906051057 73 170 0.0 1.0 0.00 0.00 0.00 86 1017.8
20260906050552 73 183 0.0 0.0 0.00 0.00 0.00 86 1018.0
20260906050048 73 183 0.0 1.0 0.00 0.00 0.00 85 1018.3
20260906045545 73 183 0.0 1.0 0.00 0.00 0.00 85 1018.2
20260906045042 73 183 1.0 1.0 0.00 0.00 0.00 85 1018.3
20260906044537 73 157 0.0 0.0 0.00 0.00 0.00 85 1018.2
20260906044032 73 157 0.0 0.0 0.00 0.00 0.00 85 1018.2
20260906043528 74 150 0.0 2.0 0.00 0.00 0.00 85 1018.1
20260906043024 74 187 0.0 0.0 0.00 0.00 0.00 85 1018.2
20260906042522 74 183 0.0 1.0 0.00 0.00 0.00 85 1018.3
20260906042018 73 183 0.0 0.0 0.00 0.00 0.00 85 1018.5
20260906041514 73 183 1.0 1.0 0.00 0.00 0.00 85 1018.4
20260906041013 73 183 0.0 0.0 0.00 0.00 0.00 85 1018.3
20260906040503 73 183 0.0 0.0 0.00 0.00 0.00 85 1018.4
20260906035957 73 183 0.0 0.0 0.00 0.00 0.00 85 1018.4
20260906035453 73 183 0.0 0.0 0.00 0.00 0.00 85 1018.3
20260906034949 73 183 0.0 0.0 0.00 0.00 0.00 85 1018.3
20260906034449 73 183 0.0 0.0 0.00 0.00 0.00 85 1018.2
20260906033944 73 183 0.0 0.0 0.00 0.00 0.00 85 1018.3
20260906033439 73 183 0.0 0.0 0.00 0.00 0.00 85 1018.3
20260906032934 74 183 0.0 0.0 0.00 0.00 0.00 85 1018.2
20260906032431 74 183 0.0 0.0 0.00 0.00 0.00 84 1018.2
20260906031925 74 183 0.0 0.0 0.00 0.00 0.00 84 1018.2
20260906031420 74 183 0.0 0.0 0.00 0.00 0.00 83 1018.2
20260906030916 74 183 0.0 0.0 0.00 0.00 0.00 84 1018.1
20260906030410 75 183 0.0 0.0 0.00 0.00 0.00 83 1018.3
20260906025905 75 183 0.0 0.0 0.00 0.00 0.00 83 1018.1
20260906025359 75 183 0.0 0.0 0.00 0.00 0.00 83 1018.3
20260906024858 75 183 0.0 0.0 0.00 0.00 0.00 82 1018.5
20260906024357 75 183 0.0 0.0 0.00 0.00 0.00 82 1018.3
20260906023852 75 183 0.0 0.0 0.00 0.00 0.00 82 1018.3
20260906023348 75 183 0.0 0.0 0.00 0.00 0.00 82 1018.5
20260906022843 75 183 0.0 0.0 0.00 0.00 0.00 82 1018.3
20260906022338 75 183 0.0 0.0 0.00 0.00 0.00 82 1018.2
20260906021834 75 183 0.0 0.0 0.00 0.00 0.00 82 1018.0
20260906021333 75 183 0.0 0.0 0.00 0.00 0.00 82 1017.8
20260906020828 75 183 0.0 0.0 0.00 0.00 0.00 82 1017.8
20260906020327 75 183 0.0 0.0 0.00 0.00 0.00 82 1017.4
20260906015822 75 183 0.0 0.0 0.00 0.00 0.00 81 1017.3
20260906015321 76 183 0.0 0.0 0.00 0.00 0.00 80 1017.2
20260906014821 76 183 0.0 0.0 0.00 0.00 0.00 80 1017.2
20260906014316 76 183 0.0 0.0 0.00 0.00 0.00 79 1017.0
20260906013812 77 190 0.0 1.0 0.00 0.00 0.00 79 1016.8
20260906013307 77 161 2.0 2.0 0.00 0.00 0.00 79 1016.6
20260906012803 77 154 1.0 2.0 0.00 0.00 0.00 79 1016.3
20260906012257 77 155 2.0 2.0 0.00 0.00 0.00 79 1016.4
20260906011753 77 183 1.0 3.0 0.00 0.00 0.00 78 1016.3
20260906011252 77 172 2.0 3.0 0.00 0.00 0.00 78 1016.4
20260906010748 77 148 3.0 3.0 0.00 0.00 0.00 78 1016.4
20260906010244 78 155 4.0 5.0 0.00 0.00 0.00 78 1016.2
20260906005739 78 182 2.0 3.0 0.00 0.00 0.00 78 1016.1
20260906005232 78 166 1.0 5.0 0.00 0.00 0.00 77 1016.0
20260906004731 78 201 3.0 5.0 0.00 0.00 0.00 77 1016.2
20260906004221 79 171 1.0 3.0 0.00 0.00 0.00 76 1016.2
20260906003716 79 126 3.0 6.0 0.00 0.00 0.00 76 1015.9
20260906003211 79 196 2.0 3.0 0.00 0.00 0.00 75 1015.9
20260906002706 80 143 5.0 6.0 0.00 0.00 0.00 75 1015.7
20260906002201 80 170 2.0 2.0 0.00 0.00 0.00 74 1015.8
20260906001656 80 162 2.0 3.0 0.00 0.00 0.00 73 1015.7
20260906001156 81 177 2.0 6.0 0.00 0.00 0.00 73 1015.8
20260906000651 81 145 3.0 6.0 0.00 0.00 0.00 72 1015.6
20260906000146 81 141 2.0 5.0 0.00 0.00 0.00 71 1015.7
20260905235645 82 241 1.0 2.0 0.00 0.00 0.00 71 1015.5
20260905235141 82 184 1.0 5.0 0.00 0.00 0.00 70 1015.6
20260905234636 83 159 2.0 7.0 0.00 0.00 0.00 69 1015.5
20260905234131 83 216 2.0 5.0 0.00 0.00 0.00 68 1015.5
20260905233626 83 209 3.0 3.0 0.00 0.00 0.00 69 1015.5
20260905233120 83 133 2.0 7.0 0.00 0.00 0.00 68 1015.3
20260905232616 83 159 2.0 8.0 0.00 0.00 0.00 68 1015.1
20260905232112 84 145 2.0 6.0 0.00 0.00 0.00 67 1015.4
20260905231612 84 183 1.0 7.0 0.00 0.00 0.00 67 1015.3
20260905231108 84 186 3.0 5.0 0.00 0.00 0.00 65 1015.3
20260905230603 84 128 3.0 6.0 0.00 0.00 0.00 65 1015.3
20260905230101 84 101 1.0 7.0 0.00 0.00 0.00 64 1015.0
20260905225555 84 95 3.0 5.0 0.00 0.00 0.00 64 1015.1
20260905225050 84 167 4.0 6.0 0.00 0.00 0.00 64 1014.9
20260905224550 84 188 2.0 6.0 0.00 0.00 0.00 64 1014.8
20260905224049 84 171 4.0 6.0 0.00 0.00 0.00 63 1015.1
20260905223547 85 111 3.0 5.0 0.00 0.00 0.00 62 1014.7
20260905223043 85 137 3.0 7.0 0.00 0.00 0.00 61 1014.9
20260905222543 85 108 4.0 7.0 0.00 0.00 0.00 62 1014.9
20260905222038 85 156 4.0 5.0 0.00 0.00 0.00 63 1014.9
20260905221534 85 138 3.0 6.0 0.00 0.00 0.00 63 1014.9
20260905221030 85 124 3.0 3.0 0.00 0.00 0.00 62 1015.3
20260905220526 85 192 3.0 5.0 0.00 0.00 0.00 62 1015.3
20260905220022 85 123 2.0 3.0 0.00 0.00 0.00 63 1015.2
20260905215515 84 181 2.0 6.0 0.00 0.00 0.00 64 1015.4
20260905215012 84 127 2.0 6.0 0.00 0.00 0.00 65 1015.4
20260905214507 84 195 0.0 3.0 0.00 0.00 0.00 66 1015.4
20260905214002 86 156 2.0 3.0 0.00 0.00 0.00 64 1015.3
20260905213458 85 199 1.0 3.0 0.00 0.00 0.00 64 1015.2
20260905212953 84 109 2.0 2.0 0.00 0.00 0.00 67 1015.3
20260905212447 84 98 3.0 8.0 0.00 0.00 0.00 67 1015.5
20260905211946 84 137 2.0 5.0 0.00 0.00 0.00 67 1015.3
20260905211442 84 71 2.0 6.0 0.00 0.00 0.00 66 1015.2
20260905210938 84 95 2.0 7.0 0.00 0.00 0.00 67 1015.2
20260905210433 85 182 3.0 9.0 0.00 0.00 0.00 66 1015.3
20260905205932 85 173 2.0 5.0 0.00 0.00 0.00 66 1015.2
20260905205427 84 84 4.0 7.0 0.00 0.00 0.00 67 1015.2
20260905204926 85 138 5.0 7.0 0.00 0.00 0.00 64 1015.7
20260905204422 84 150 3.0 3.0 0.00 0.00 0.00 65 1015.7
20260905203921 83 341 5.0 6.0 0.00 0.00 0.00 66 1015.7
20260905203417 83 92 1.0 6.0 0.00 0.00 0.00 68 1015.8
20260905202912 83 68 4.0 5.0 0.00 0.00 0.00 69 1016.1
20260905202407 83 175 1.0 3.0 0.00 0.00 0.00 70 1016.2
20260905201903 83 202 1.0 2.0 0.00 0.00 0.00 70 1016.3
20260905201357 83 85 2.0 5.0 0.00 0.00 0.00 69 1016.6
20260905200852 83 28 6.0 8.0 0.00 0.00 0.00 70 1016.6
20260905200348 83 102 3.0 5.0 0.00 0.00 0.00 71 1016.7
20260905195846 82 140 5.0 7.0 0.00 0.00 0.00 71 1016.8
20260905195341 82 28 3.0 6.0 0.00 0.00 0.00 72 1016.5
20260905194837 83 22 4.0 6.0 0.00 0.00 0.00 71 1016.8
20260905194336 83 135 2.0 5.0 0.00 0.00 0.00 71 1016.9
20260905193836 82 70 4.0 6.0 0.00 0.00 0.00 72 1016.9
20260905193330 82 188 3.0 3.0 0.00 0.00 0.00 72 1017.1
20260905192827 81 128 0.0 2.0 0.00 0.00 0.00 74 1017.0
20260905192322 81 150 2.0 2.0 0.00 0.00 0.00 74 1017.1
20260905191821 81 157 2.0 2.0 0.00 0.00 0.00 74 1017.3
20260905191320 82 166 0.0 1.0 0.00 0.00 0.00 72 1017.4
20260905190813 82 177 0.0 1.0 0.00 0.00 0.00 72 1017.3
20260905190313 81 184 0.0 1.0 0.00 0.00 0.00 74 1017.0
20260905185811 82 161 1.0 3.0 0.00 0.00 0.00 72 1017.3
20260905185307 82 212 1.0 2.0 0.00 0.00 0.00 71 1017.2
20260905184801 82 180 0.0 1.0 0.00 0.00 0.00 71 1017.1
20260905184259 83 148 1.0 3.0 0.00 0.00 0.00 70 1017.0
20260905183753 82 207 2.0 5.0 0.00 0.00 0.00 71 1017.3
20260905183249 83 71 3.0 3.0 0.00 0.00 0.00 70 1017.2
20260905182748 81 224 1.0 2.0 0.00 0.00 0.00 73 1017.2
20260905182248 81 154 2.0 3.0 0.00 0.00 0.00 74 1017.7
20260905181743 80 175 1.0 2.0 0.00 0.00 0.00 74 1017.5
20260905181243 80 133 2.0 3.0 0.00 0.00 0.00 74 1017.4
20260905180737 79 179 1.0 3.0 0.00 0.00 0.00 76 1017.5
20260905180232 80 133 2.0 2.0 0.00 0.00 0.00 75 1017.4
20260905175727 80 192 2.0 2.0 0.00 0.00 0.00 74 1017.5
20260905175221 80 209 2.0 3.0 0.00 0.00 0.00 75 1017.8
20260905174717 78 187 1.0 2.0 0.00 0.00 0.00 77 1017.7
20260905174212 78 169 2.0 3.0 0.00 0.00 0.00 77 1018.0
20260905173709 78 102 2.0 3.0 0.00 0.00 0.00 78 1018.0
20260905173204 77 212 1.0 6.0 0.00 0.00 0.00 78 1018.2
20260905172703 77 182 0.0 1.0 0.00 0.00 0.00 80 1018.4
20260905172157 76 126 2.0 3.0 0.00 0.00 0.00 82 1018.3
20260905171653 76 170 1.0 2.0 0.00 0.00 0.00 81 1018.4
20260905171149 75 195 0.0 3.0 0.00 0.00 0.00 82 1018.4
20260905170647 75 152 1.0 3.0 0.00 0.00 0.00 84 1018.5
20260905170141 74 190 2.0 6.0 0.00 0.00 0.00 84 1018.2
20260905165641 74 181 2.0 3.0 0.00 0.00 0.00 85 1018.5
20260905165136 74 175 3.0 6.0 0.00 0.00 0.00 85 1018.4
20260905164631 73 124 1.0 3.0 0.00 0.00 0.00 86 1018.3
20260905164130 74 113 3.0 5.0 0.00 0.00 0.00 85 1018.6
20260905163627 74 138 1.0 2.0 0.00 0.00 0.00 85 1018.6
20260905163123 74 131 0.0 3.0 0.00 0.00 0.00 86 1018.5
20260905162619 74 180 1.0 3.0 0.00 0.00 0.00 86 1018.3
20260905162118 74 154 2.0 3.0 0.00 0.00 0.00 85 1018.6
20260905161618 74 145 2.0 3.0 0.00 0.00 0.00 86 1018.5
20260905161115 73 177 2.0 3.0 0.00 0.00 0.00 86 1018.2
20260905160615 73 156 0.0 1.0 0.00 0.00 0.00 88 1018.5
20260905160109 73 159 1.0 2.0 0.00 0.00 0.00 88 1018.2
20260905155604 72 116 1.0 3.0 0.00 0.00 0.00 88 1018.3
20260905155103 72 154 0.0 1.0 0.00 0.00 0.00 89 1018.1
20260905154557 72 154 1.0 2.0 0.00 0.00 0.00 90 1018.3
20260905154053 71 162 0.0 1.0 0.00 0.00 0.00 90 1018.5
20260905153549 71 178 0.0 2.0 0.00 0.00 0.00 90 1018.3
20260905153048 71 181 0.0 1.0 0.00 0.00 0.00 91 1018.6
20260905152543 71 139 0.0 0.0 0.00 0.00 0.00 91 1018.5
20260905152038 71 139 1.0 1.0 0.00 0.00 0.00 91 1018.1
20260905151533 71 150 2.0 2.0 0.00 0.00 0.00 92 1017.9
20260905151029 70 116 1.0 2.0 0.00 0.00 0.00 92 1017.9
20260905150524 70 132 1.0 2.0 0.00 0.00 0.00 92 1017.8
20260905150021 70 95 3.0 3.0 0.00 0.00 0.00 92 1017.8
20260905145514 70 101 0.0 3.0 0.00 0.00 0.00 93 1017.7
20260905145009 70 133 2.0 3.0 0.00 0.00 0.00 93 1017.7
20260905144504 70 127 1.0 5.0 0.00 0.00 0.00 94 1017.7
20260905144003 70 149 1.0 2.0 0.00 0.00 0.00 95 1017.5
20260905143502 69 141 1.0 1.0 0.00 0.00 0.00 95 1017.7
20260905142957 69 171 0.0 3.0 0.00 0.00 0.00 96 1017.9
20260905142456 69 97 0.0 2.0 0.00 0.00 0.00 96 1017.9
20260905141951 69 87 2.0 2.0 0.00 0.00 0.00 96 1017.8
20260905141446 69 87 0.0 3.0 0.00 0.00 0.00 96 1017.5
20260905140943 69 87 2.0 2.0 0.00 0.00 0.00 96 1017.8
20260905140437 69 122 1.0 2.0 0.00 0.00 0.00 96 1017.5
20260905135936 69 122 0.0 2.0 0.00 0.00 0.00 97 1017.9
20260905135431 69 122 0.0 0.0 0.00 0.00 0.00 97 1018.0
20260905134921 69 122 1.0 1.0 0.00 0.00 0.00 97 1017.9
20260905134420 69 122 0.0 0.0 0.00 0.00 0.00 97 1018.1
20260905133914 69 122 0.0 0.0 0.00 0.00 0.00 97 1017.8
20260905133409 69 122 0.0 1.0 0.00 0.00 0.00 97 1018.1
20260905132909 68 122 0.0 0.0 0.00 0.00 0.00 97 1017.9
20260905132404 68 122 0.0 0.0 0.00 0.00 0.00 97 1017.5
20260905131859 68 122 0.0 1.0 0.00 0.00 0.00 97 1017.5
20260905131355 68 122 0.0 0.0 0.00 0.00 0.00 97 1017.4
20260905130850 68 122 0.0 0.0 0.00 0.00 0.00 97 1017.3
20260905130348 68 122 1.0 1.0 0.00 0.00 0.00 97 1017.1
20260905125844 68 122 0.0 0.0 0.00 0.00 0.00 97 1016.9
20260905125338 68 122 0.0 1.0 0.00 0.00 0.00 97 1016.7
20260905124834 68 122 0.0 0.0 0.00 0.00 0.00 97 1016.5
20260905124331 68 122 0.0 2.0 0.00 0.00 0.00 97 1016.2
20260905123830 68 122 1.0 2.0 0.00 0.00 0.00 97 1016.2
20260905123328 68 122 0.0 1.0 0.00 0.00 0.00 97 1015.9
20260905122827 68 122 1.0 2.0 0.00 0.00 0.00 96 1016.1
20260905122326 68 137 0.0 1.0 0.00 0.00 0.00 96 1016.2
20260905121822 68 137 0.0 1.0 0.00 0.00 0.00 96 1016.6
20260905121319 68 137 0.0 0.0 0.00 0.00 0.00 96 1016.3
20260905120817 68 137 0.0 0.0 0.00 0.00 0.00 96 1016.5
20260905120312 68 137 1.0 1.0 0.00 0.00 0.00 96 1016.6
20260905115807 68 138 0.0 0.0 0.00 0.00 0.00 96 1016.7
20260905115306 68 138 0.0 0.0 0.00 0.00 0.00 96 1016.6
20260905114806 68 138 0.0 1.0 0.00 0.00 0.00 96 1016.4
20260905114305 67 138 0.0 1.0 0.00 0.00 0.00 96 1016.4
20260905113759 67 138 0.0 1.0 0.00 0.00 0.00 96 1016.3
20260905113255 67 138 0.0 0.0 0.00 0.00 0.00 96 1016.2
20260905112750 67 138 0.0 1.0 0.00 0.00 0.00 96 1016.2
20260905112250 67 138 0.0 0.0 0.00 0.00 0.00 96 1016.2
20260905111745 67 138 0.0 0.0 0.00 0.00 0.00 95 1016.0
20260905111239 67 138 0.0 1.0 0.00 0.00 0.00 95 1016.2
20260905110739 67 138 0.0 1.0 0.00 0.00 0.00 95 1016.1
20260905110233 67 138 1.0 1.0 0.00 0.00 0.00 95 1016.2
20260905105728 67 138 0.0 1.0 0.00 0.00 0.00 95 1016.3
20260905105227 67 139 0.0 1.0 0.00 0.00 0.00 95 1016.1
20260905104722 67 139 0.0 1.0 0.00 0.00 0.00 95 1016.1
20260905104219 67 140 0.0 0.0 0.00 0.00 0.00 95 1016.2
20260905103713 67 149 1.0 2.0 0.00 0.00 0.00 95 1016.0
20260905103209 67 134 1.0 3.0 0.00 0.00 0.00 94 1016.2
20260905102704 67 116 0.0 1.0 0.00 0.00 0.00 94 1016.0
20260905102201 67 116 1.0 2.0 0.00 0.00 0.00 94 1016.0
20260905101659 67 119 0.0 2.0 0.00 0.00 0.00 94 1016.0
20260905101158 67 127 1.0 3.0 0.00 0.00 0.00 94 1015.9
20260905100654 68 161 1.0 2.0 0.00 0.00 0.00 93 1016.0
20260905100149 68 145 1.0 2.0 0.00 0.00 0.00 93 1016.0
20260905095648 68 143 1.0 2.0 0.00 0.00 0.00 93 1015.6
20260905095143 68 156 1.0 2.0 0.00 0.00 0.00 93 1015.5
20260905094638 68 124 2.0 3.0 0.00 0.00 0.00 92 1015.2
20260905094137 68 152 1.0 2.0 0.00 0.00 0.00 92 1015.0
20260905093632 68 289 1.0 2.0 0.00 0.00 0.00 92 1015.2
20260905093129 68 180 1.0 3.0 0.00 0.00 0.00 92 1015.3
20260905092629 68 58 1.0 2.0 0.00 0.00 0.00 92 1015.0
20260905092125 68 58 0.0 2.0 0.00 0.00 0.00 92 1015.1
20260905091624 68 98 2.0 2.0 0.00 0.00 0.00 92 1015.3
20260905091124 68 111 0.0 2.0 0.00 0.00 0.00 92 1015.4
20260905090619 68 110 0.0 2.0 0.00 0.00 0.00 92 1015.4
20260905090114 68 109 2.0 3.0 0.00 0.00 0.00 93 1015.7
20260905085613 68 147 1.0 1.0 0.00 0.00 0.00 93 1015.7
20260905085109 68 97 1.0 2.0 0.00 0.00 0.00 93 1015.8
20260905084608 68 32 2.0 3.0 0.00 0.00 0.00 93 1015.6
20260905084103 68 104 1.0 2.0 0.00 0.00 0.00 93 1015.5
20260905083557 68 118 3.0 3.0 0.00 0.00 0.00 93 1015.7
20260905083054 68 89 2.0 3.0 0.00 0.00 0.00 93 1015.6
20260905082549 68 149 1.0 2.0 0.00 0.00 0.00 93 1015.8
20260905082045 68 120 2.0 6.0 0.00 0.00 0.00 93 1015.5
20260905081544 68 93 2.0 2.0 0.00 0.00 0.00 93 1015.6
20260905081038 67 137 1.0 2.0 0.00 0.00 0.00 93 1015.7
20260905080533 67 152 0.0 1.0 0.00 0.00 0.00 93 1015.7
20260905080028 67 138 1.0 5.0 0.00 0.00 0.00 93 1015.8
20260905075521 67 158 0.0 1.0 0.00 0.00 0.00 93 1015.9
20260905075020 67 108 1.0 2.0 0.00 0.00 0.00 93 1015.9
20260905074510 67 106 2.0 3.0 0.00 0.00 0.00 93 1015.9
20260905074006 67 144 0.0 3.0 0.00 0.00 0.00 93 1015.9
20260905073501 67 143 1.0 2.0 0.00 0.00 0.00 93 1015.8
20260905072955 67 131 1.0 1.0 0.00 0.00 0.00 92 1015.9
20260905072450 67 145 1.0 2.0 0.00 0.00 0.00 92 1015.9
20260905071946 67 145 0.0 0.0 0.00 0.00 0.00 92 1015.9
20260905071443 67 150 0.0 1.0 0.00 0.00 0.00 92 1015.9
20260905070942 67 128 1.0 2.0 0.00 0.00 0.00 91 1015.9
20260905070438 67 208 1.0 1.0 0.00 0.00 0.00 91 1016.1
20260905065937 68 186 0.0 1.0 0.00 0.00 0.00 91 1015.9
20260905065435 68 137 0.0 1.0 0.00 0.00 0.00 91 1015.7
20260905064932 68 124 1.0 3.0 0.00 0.00 0.00 91 1015.8